| time (UTC) | temp C | wind direction | speed KPH | gust KPH | rain 1hr cm | rain 24hr cm | rain mn cm | humidity % | barometer mb |
| 20260504000032 | 15 | 192 | 1.6 | 8.0 | 0.00 | 0.00 | 0.00 | 80 | 1013.2 |
| 20260503234531 | 15 | 204 | 3.2 | 8.0 | 0.00 | 0.00 | 0.00 | 80 | 1013.3 |
| 20260503233035 | 15 | 198 | 3.2 | 14.5 | 0.00 | 0.00 | 0.00 | 80 | 1013.4 |
| 20260503231530 | 15 | 191 | 4.8 | 9.7 | 0.00 | 0.00 | 0.00 | 79 | 1013.4 |
| 20260503230036 | 15 | 218 | 6.4 | 12.9 | 0.00 | 0.00 | 0.00 | 78 | 1013.4 |
| 20260503224527 | 15 | 192 | 4.8 | 11.3 | 0.00 | 0.00 | 0.00 | 77 | 1013.6 |
| 20260503223026 | 15 | 198 | 3.2 | 9.7 | 0.00 | 0.00 | 0.00 | 77 | 1013.6 |
| 20260503221524 | 15 | 215 | 3.2 | 9.7 | 0.00 | 0.00 | 0.00 | 77 | 1013.5 |
| 20260503220024 | 15 | 209 | 3.2 | 8.0 | 0.00 | 0.00 | 0.00 | 76 | 1013.6 |
| 20260503214523 | 16 | 244 | 3.2 | 11.3 | 0.00 | 0.00 | 0.00 | 75 | 1013.6 |
| 20260503213023 | 15 | 225 | 3.2 | 12.9 | 0.00 | 0.00 | 0.00 | 75 | 1013.5 |
| 20260503211522 | 15 | 240 | 4.8 | 9.7 | 0.00 | 0.00 | 0.00 | 76 | 1013.5 |
| 20260503210022 | 15 | 252 | 4.8 | 11.3 | 0.00 | 0.00 | 0.00 | 76 | 1013.4 |
| 20260503204522 | 16 | 229 | 4.8 | 9.7 | 0.00 | 0.00 | 0.00 | 75 | 1013.2 |
| 20260503203041 | 16 | 276 | 4.8 | 11.3 | 0.00 | 0.00 | 0.00 | 75 | 1013.0 |
| 20260503201521 | 16 | 275 | 8.0 | 14.5 | 0.00 | 0.00 | 0.00 | 73 | 1012.9 |
| 20260503200020 | 16 | 257 | 8.0 | 17.7 | 0.00 | 0.00 | 0.00 | 72 | 1012.7 |
| 20260503194534 | 16 | 241 | 9.7 | 20.9 | 0.00 | 0.00 | 0.00 | 70 | 1012.7 |
| 20260503193019 | 17 | 267 | 8.0 | 16.1 | 0.00 | 0.00 | 0.00 | 67 | 1012.4 |
| 20260503191519 | 17 | 253 | 9.7 | 17.7 | 0.00 | 0.00 | 0.00 | 65 | 1012.3 |
| 20260503190028 | 18 | 256 | 11.3 | 19.3 | 0.00 | 0.00 | 0.00 | 63 | 1012.2 |
| 20260503184523 | 18 | 215 | 8.0 | 24.1 | 0.00 | 0.00 | 0.00 | 61 | 1012.0 |
| 20260503183018 | 18 | 261 | 14.5 | 27.4 | 0.00 | 0.00 | 0.00 | 58 | 1012.0 |
| 20260503181517 | 19 | 265 | 12.9 | 27.4 | 0.00 | 0.00 | 0.00 | 54 | 1012.0 |
| 20260503180017 | 20 | 246 | 11.3 | 27.4 | 0.00 | 0.00 | 0.00 | 56 | 1011.9 |
| 20260503174516 | 20 | 233 | 14.5 | 25.7 | 0.00 | 0.00 | 0.00 | 54 | 1011.9 |
| 20260503173016 | 21 | 255 | 11.3 | 27.4 | 0.00 | 0.00 | 0.00 | 53 | 1011.8 |
| 20260503171515 | 21 | 214 | 9.7 | 30.6 | 0.00 | 0.00 | 0.00 | 53 | 1011.9 |
| 20260503081533 | 18 | 244 | 1.6 | 6.4 | 0.00 | 0.00 | 0.00 | 83 | 1013.8 |
| 20260503071507 | 16 | 271 | 1.6 | 6.4 | 0.00 | 0.00 | 0.00 | 88 | 1013.6 |
| 20260503060118 | 16 | 290 | 1.6 | 6.4 | 0.00 | 0.00 | 0.00 | 88 | 1013.4 |
| 20260503054618 | 16 | 293 | 3.2 | 6.4 | 0.00 | 0.00 | 0.00 | 88 | 1013.4 |
| 20260503053056 | 16 | 292 | 3.2 | 8.0 | 0.00 | 0.00 | 0.00 | 88 | 1013.3 |
| 20260503051554 | 16 | 255 | 0.0 | 4.8 | 0.00 | 0.00 | 0.00 | 88 | 1013.1 |
| 20260503050054 | 16 | 255 | 1.6 | 6.4 | 0.00 | 0.00 | 0.00 | 88 | 1013.1 |
| 20260503044554 | 16 | 251 | 1.6 | 8.0 | 0.00 | 0.00 | 0.00 | 87 | 1013.1 |
| 20260503043053 | 16 | 240 | 4.8 | 9.7 | 0.00 | 0.00 | 0.00 | 87 | 1013.2 |
| 20260503041552 | 16 | 257 | 1.6 | 8.0 | 0.00 | 0.00 | 0.00 | 87 | 1013.1 |
| 20260503040050 | 15 | 265 | 0.0 | 0.0 | 0.00 | 0.00 | 0.00 | 86 | 1013.2 |
| 20260503034550 | 16 | 265 | 0.0 | 0.0 | 0.00 | 0.00 | 0.00 | 86 | 1013.3 |
| 20260503033049 | 16 | 265 | 0.0 | 0.0 | 0.00 | 0.00 | 0.00 | 86 | 1013.4 |
| 20260503031548 | 16 | 265 | 0.0 | 3.2 | 0.00 | 0.00 | 0.00 | 86 | 1013.4 |
| 20260503030049 | 16 | 265 | 0.0 | 4.8 | 0.00 | 0.00 | 0.00 | 85 | 1013.5 |
| 20260503024546 | 16 | 250 | 1.6 | 6.4 | 0.00 | 0.00 | 0.00 | 85 | 1013.5 |
| 20260503023047 | 16 | 237 | 0.0 | 4.8 | 0.00 | 0.00 | 0.00 | 85 | 1013.5 |
| 20260503021545 | 16 | 239 | 0.0 | 6.4 | 0.00 | 0.00 | 0.00 | 84 | 1013.5 |
| 20260503020044 | 16 | 234 | 3.2 | 9.7 | 0.00 | 0.00 | 0.00 | 84 | 1013.6 |
| 20260503014542 | 16 | 248 | 4.8 | 9.7 | 0.00 | 0.00 | 0.00 | 84 | 1013.9 |
| 20260503013041 | 16 | 248 | 4.8 | 9.7 | 0.00 | 0.00 | 0.00 | 83 | 1014.0 |
| 20260503011538 | 16 | 239 | 4.8 | 11.3 | 0.00 | 0.00 | 0.00 | 83 | 1014.3 |
| 20260503010038 | 16 | 235 | 4.8 | 11.3 | 0.00 | 0.00 | 0.00 | 82 | 1014.4 |
| 20260503004534 | 16 | 244 | 3.2 | 11.3 | 0.00 | 0.00 | 0.00 | 82 | 1014.7 |
| 20260503003036 | 16 | 246 | 6.4 | 11.3 | 0.00 | 0.00 | 0.00 | 82 | 1014.7 |
| 20260503001532 | 16 | 240 | 1.6 | 6.4 | 0.00 | 0.00 | 0.00 | 81 | 1014.8 |